Weather History for KPRG - September, 2012

Change the Weather History Date:

Sunday, September 23, 2012

  Actual Average (KHUF) Record (KHUF)
Temperature  
Mean Temperature 50 °F 63 °F  
Max Temperature 64 °F 76 °F 94 °F (2010)
Min Temperature 35 °F 51 °F 34 °F (1974)
Degree Days  
Heating Degree Days 16 4  
Month to date heating degree days 35  
Since 1 July heating degree days 40  
Cooling Degree Days 0 2  
Month to date cooling degree days 87  
Year to date cooling degree days 966  
Moisture  
Dew Point 37 °F    
Average Humidity 67    
Maximum Humidity 95    
Minimum Humidity 31    
Precipitation  
Precipitation 0.00 in 0.09 in 1.03 in (1955)
Month to date precipitation 2.73  
Year to date precipitation 34.01  
Sea Level Pressure  
Sea Level Pressure 30.25 in    
Wind  
Wind Speed 3 mph (WNW)    
Max Wind Speed 13 mph    
Max Gust Speed 20 mph    
Visibility 10 miles    
Events      
T = Trace of Precipitation, MM = Missing Value Source: NWS Daily Summary

Daily Weather History Graph

Daily Weather History Graph

Search for Another Location

Airport or City:

Trip Planner

Search our weather history database for the weather conditions in past years. The results will help you decide how hot, cold, wet, or windy it might be!

Date:

Astronomy

Sep. 23, 2012 Rise Set
Actual Time 6:39 AM CDT 6:45 PM CDT
Civil Twilight 6:12 AM CDT 7:12 PM CDT
Nautical Twilight 5:41 AM CDT 7:43 PM CDT
Astronomical Twilight 5:09 AM CDT 8:15 PM CDT
Moon 2:45 PM CDT (9/23) No Moon Set
Length of Visible Light 12h 59m
Length of Day
12h 05m
First Quarter, 60% of the Moon is Illuminated
Sep 23
First Quarter
Sep 29
Full
Oct 8
Last Quarter
Oct 15
New
Oct 21
First Quarter

Hourly Weather History & Observations

Time (CDT) Temp. Windchill Dew Point Humidity Pressure Visibility Wind Dir Wind Speed Gust Speed Precip Events Conditions
12:15 AM 38.5 °F - 35.6 °F 89% 30.20 in 10.0 mi Calm Calm - N/A   Clear
12:35 AM 37.0 °F - 34.7 °F 91% 30.20 in 10.0 mi Calm Calm - N/A   Clear
12:55 AM 39.6 °F - 36.7 °F 89% 30.20 in 10.0 mi Calm Calm - N/A   Clear
1:15 AM 39.2 °F 37.0 °F 36.0 °F 88% 30.20 in 10.0 mi WNW 3.5 mph - N/A   Clear
1:35 AM 37.6 °F - 35.4 °F 92% 30.20 in 10.0 mi Calm Calm - N/A   Clear
1:55 AM 36.5 °F - 34.5 °F 93% 30.21 in 10.0 mi Calm Calm - N/A   Clear
2:15 AM 35.2 °F - 33.8 °F 94% 30.21 in 10.0 mi Calm Calm - N/A   Clear
2:55 AM 38.3 °F 34.8 °F 36.0 °F 91% 30.22 in 10.0 mi West 4.6 mph - N/A   Clear
3:15 AM 38.1 °F 33.7 °F 35.6 °F 91% 30.23 in 10.0 mi West 5.8 mph - N/A   Clear
3:35 AM 37.6 °F - 35.2 °F 91% 30.23 in 10.0 mi Calm Calm - N/A   Clear
3:55 AM 36.7 °F - 34.9 °F 93% 30.23 in 10.0 mi Calm Calm - N/A   Clear
4:15 AM 35.4 °F 32.6 °F 33.8 °F 94% 30.23 in 10.0 mi West 3.5 mph - N/A   Clear
4:35 AM 36.1 °F 33.5 °F 34.5 °F 94% 30.24 in 10.0 mi West 3.5 mph - N/A   Scattered Clouds
4:55 AM 37.6 °F 34.0 °F 36.1 °F 95% 30.24 in 10.0 mi West 4.6 mph - N/A   Mostly Cloudy
5:15 AM 39.4 °F 37.2 °F 37.6 °F 93% 30.25 in 10.0 mi West 3.5 mph - N/A   Overcast
5:35 AM 40.1 °F - 38.3 °F 93% 30.25 in 10.0 mi Calm Calm - N/A   Overcast
5:55 AM 40.6 °F - 38.7 °F 93% 30.25 in 10.0 mi Calm Calm - N/A   Overcast
6:15 AM 41.0 °F - 38.7 °F 91% 30.26 in 10.0 mi Calm Calm - N/A   Overcast
6:35 AM 40.5 °F - 38.3 °F 92% 30.26 in 10.0 mi Calm Calm - N/A   Scattered Clouds
6:55 AM 39.9 °F 37.8 °F 38.1 °F 93% 30.27 in 10.0 mi WNW 3.5 mph - N/A   Scattered Clouds
7:15 AM 39.7 °F - 38.3 °F 95% 30.27 in 10.0 mi Calm Calm - N/A   Scattered Clouds
7:35 AM 40.6 °F - 39.2 °F 95% 30.28 in 10.0 mi Calm Calm - N/A   Clear
7:55 AM 43.5 °F 41.9 °F 41.4 °F 92% 30.28 in 10.0 mi WNW 3.5 mph - N/A   Clear
8:15 AM 46.4 °F 44.3 °F 42.4 °F 86% 30.28 in 10.0 mi NW 4.6 mph - N/A   Clear
8:35 AM 48.4 °F - 43.2 °F 82% 30.29 in 10.0 mi NNW 3.5 mph - N/A   Clear
8:55 AM 50.4 °F - 43.3 °F 77% 30.29 in 7.0 mi NW 5.8 mph - N/A   Clear
9:15 AM 51.8 °F - 43.3 °F 73% 30.30 in 10.0 mi NW 4.6 mph - N/A   Clear
9:35 AM 53.8 °F - 43.3 °F 68% 30.30 in 10.0 mi NNW 4.6 mph - N/A   Clear
9:55 AM 54.7 °F - 41.7 °F 62% 30.30 in 7.0 mi Calm Calm - N/A   Clear
10:15 AM 56.3 °F - 39.7 °F 54% 30.29 in 10.0 mi NW 5.8 mph - N/A   Clear
10:35 AM 57.2 °F - 39.0 °F 51% 30.29 in 10.0 mi NNW 5.8 mph - N/A   Clear
10:55 AM 57.9 °F - 38.1 °F 48% 30.29 in 10.0 mi North 8.1 mph - N/A   Clear
11:15 AM 59.0 °F - 37.0 °F 44% 30.30 in 10.0 mi NW 5.8 mph - N/A   Scattered Clouds
11:35 AM 59.5 °F - 35.4 °F 41% 30.29 in 10.0 mi WNW 6.9 mph - N/A   Clear
11:55 AM 61.0 °F - 34.3 °F 37% 30.29 in 10.0 mi West 9.2 mph 19.6 mph N/A   Clear
12:15 PM 59.0 °F - 34.7 °F 40% 30.29 in 10.0 mi NW 8.1 mph 17.3 mph N/A   Scattered Clouds
12:35 PM 61.2 °F - 34.9 °F 37% 30.28 in 10.0 mi West 9.2 mph 17.3 mph N/A   Clear
12:55 PM 61.9 °F - 34.5 °F 36% 30.28 in 10.0 mi WNW 6.9 mph - N/A   Clear
1:15 PM 61.9 °F - 33.6 °F 35% 30.28 in 10.0 mi WNW 10.4 mph 16.1 mph N/A   Scattered Clouds
1:35 PM 62.8 °F - 34.3 °F 35% 30.27 in 10.0 mi NW 8.1 mph - N/A   Scattered Clouds
1:55 PM 63.0 °F - 34.5 °F 35% 30.26 in 10.0 mi WNW 8.1 mph - N/A   Scattered Clouds
2:15 PM 62.8 °F - 35.2 °F 36% 30.26 in 10.0 mi WNW 6.9 mph 10.4 mph N/A   Scattered Clouds
2:35 PM 63.5 °F - 34.2 °F 33% 30.25 in 10.0 mi West 6.9 mph - N/A   Scattered Clouds
2:55 PM 63.5 °F - 34.0 °F 33% 30.25 in 10.0 mi North 6.9 mph - N/A   Scattered Clouds
3:15 PM 63.7 °F - 33.8 °F 33% 30.24 in 10.0 mi NW 10.4 mph 18.4 mph N/A   Scattered Clouds
3:35 PM 63.7 °F - 34.3 °F 34% 30.24 in 10.0 mi NW 6.9 mph - N/A   Clear
3:55 PM 63.7 °F - 33.1 °F 32% 30.24 in 10.0 mi NW 3.5 mph 10.4 mph N/A   Clear
4:15 PM 64.0 °F - 33.6 °F 32% 30.23 in 10.0 mi WNW 6.9 mph - N/A   Scattered Clouds
4:35 PM 64.4 °F - 33.3 °F 31% 30.23 in 10.0 mi West 12.7 mph 17.3 mph N/A   Scattered Clouds
4:55 PM 63.7 °F - 33.6 °F 33% 30.23 in 10.0 mi WNW 5.8 mph - N/A   Scattered Clouds
5:15 PM 63.5 °F - 32.7 °F 32% 30.23 in 10.0 mi WNW 5.8 mph - N/A   Scattered Clouds
5:35 PM 62.6 °F - 33.4 °F 34% 30.23 in 10.0 mi WNW 5.8 mph - N/A   Scattered Clouds
5:55 PM 61.7 °F - 32.9 °F 34% 30.22 in 10.0 mi WNW 5.8 mph - N/A   Scattered Clouds
6:15 PM 60.3 °F - 32.9 °F 36% 30.22 in 10.0 mi WNW 8.1 mph - N/A   Clear
6:35 PM 57.4 °F - 34.5 °F 42% 30.22 in 10.0 mi WNW 3.5 mph - N/A   Clear
6:55 PM 55.8 °F - 35.6 °F 47% 30.23 in 10.0 mi Calm Calm - N/A   Clear
7:15 PM 53.6 °F - 37.0 °F 53% 30.23 in 10.0 mi Calm Calm - N/A   Clear
7:35 PM 50.7 °F - 38.8 °F 64% 30.24 in 10.0 mi Calm Calm - N/A   Clear
7:55 PM 49.6 °F - 38.3 °F 65% 30.24 in 10.0 mi Calm Calm - N/A   Clear
8:15 PM 48.9 °F - 39.6 °F 70% 30.25 in 10.0 mi Calm Calm - N/A   Clear
8:35 PM 46.6 °F - 38.1 °F 72% 30.25 in 10.0 mi Calm Calm - N/A   Clear
8:55 PM 43.7 °F - 38.1 °F 81% 30.26 in 10.0 mi Calm Calm - N/A   Clear
9:15 PM 46.0 °F - 39.6 °F 78% 30.26 in 10.0 mi Calm Calm - N/A   Clear
9:35 PM 44.2 °F - 38.3 °F 80% 30.26 in 10.0 mi Calm Calm - N/A   Clear
9:55 PM 41.9 °F - 37.2 °F 83% 30.26 in 10.0 mi Calm Calm - N/A   Clear
10:15 PM 40.3 °F - 37.2 °F 89% 30.27 in 10.0 mi Calm Calm - N/A   Clear
10:35 PM 38.1 °F - 35.8 °F 91% 30.27 in 10.0 mi Calm Calm - N/A   Clear
10:55 PM 37.8 °F - 35.6 °F 92% 30.27 in 10.0 mi Calm Calm - N/A   Clear
11:15 PM 37.8 °F - 35.6 °F 92% 30.27 in 10.0 mi Calm Calm - N/A   Clear
11:35 PM 37.0 °F - 34.9 °F 92% 30.27 in 10.0 mi Calm Calm - N/A   Clear
11:55 PM 36.5 °F - 34.7 °F 93% 30.27 in 10.0 mi Calm Calm - N/A   Clear